Time,TemperatureF,DewpointF,PressureIn,WindDirection,WindDirectionDegrees,WindSpeedMPH,WindSpeedGustMPH,Humidity,HourlyPrecipIn,Conditions,Clouds,dailyrainin,SoftwareType,DateUTC
2013-08-06 00:01:00,62.0,45.0,-100.00,ENE,59,1.0,2.0,54,-99.99,,,-99.99,,2013-08-06 07:01:00,
2013-08-06 00:11:00,62.0,45.0,-100.00,ENE,59,1.0,2.0,54,-99.99,,,-99.99,,2013-08-06 07:11:00,
2013-08-06 00:22:00,61.0,44.0,-100.00,West,265,1.0,3.0,53,-99.99,,,-99.99,,2013-08-06 07:22:00,
2013-08-06 00:32:00,60.0,43.0,-100.00,NNE,21,2.0,4.0,54,-99.99,,,-99.99,,2013-08-06 07:32:00,
2013-08-06 00:53:00,60.0,45.0,-100.00,NE,34,2.0,4.0,57,-99.99,,,-99.99,,2013-08-06 07:53:00,
2013-08-06 01:01:00,59.0,44.0,-100.00,NE,36,1.0,4.0,58,-99.99,,,-99.99,,2013-08-06 08:01:00,
2013-08-06 01:11:00,59.0,44.0,-100.00,NE,36,1.0,4.0,58,-99.99,,,-99.99,,2013-08-06 08:11:00,
2013-08-06 01:21:00,58.0,43.0,-100.00,NW,324,1.0,3.0,58,-99.99,,,-99.99,,2013-08-06 08:21:00,
2013-08-06 01:32:00,58.0,43.0,-100.00,NE,52,2.0,3.0,57,-99.99,,,-99.99,,2013-08-06 08:32:00,
2013-08-06 01:43:00,58.0,43.0,-100.00,NE,52,2.0,3.0,57,-99.99,,,-99.99,,2013-08-06 08:43:00,
2013-08-06 01:52:00,58.0,43.0,-100.00,NE,52,2.0,3.0,57,-99.99,,,-99.99,,2013-08-06 08:52:00,
2013-08-06 02:01:00,57.0,41.0,-100.00,North,1,2.0,4.0,54,-99.99,,,-99.99,,2013-08-06 09:01:00,
2013-08-06 02:22:00,56.0,40.0,-100.00,NE,53,1.0,4.0,54,-99.99,,,-99.99,,2013-08-06 09:22:00,
2013-08-06 02:32:00,56.0,39.0,-100.00,NNE,24,1.0,2.0,52,-99.99,,,-99.99,,2013-08-06 09:32:00,
2013-08-06 02:43:00,57.0,39.0,-100.00,ENE,65,1.0,4.0,50,-99.99,,,-99.99,,2013-08-06 09:43:00,
2013-08-06 02:52:00,56.0,38.0,-100.00,NNE,22,0.0,1.0,50,-99.99,,,-99.99,,2013-08-06 09:52:00,
2013-08-06 03:01:00,56.0,37.0,-100.00,NNE,15,1.0,2.0,48,-99.99,,,-99.99,,2013-08-06 10:01:00,
2013-08-06 03:11:00,56.0,37.0,-100.00,NNE,15,1.0,2.0,48,-99.99,,,-99.99,,2013-08-06 10:11:00,
2013-08-06 03:22:00,56.0,37.0,-100.00,East,85,1.0,2.0,48,-99.99,,,-99.99,,2013-08-06 10:22:00,
2013-08-06 03:32:00,55.0,36.0,-100.00,NNE,31,1.0,2.0,49,-99.99,,,-99.99,,2013-08-06 10:32:00,
2013-08-06 03:52:00,54.0,35.0,-100.00,East,89,0.0,2.0,49,-99.99,,,-99.99,,2013-08-06 10:52:00,
2013-08-06 04:01:00,54.0,36.0,-100.00,NNE,26,1.0,2.0,51,-99.99,,,-99.99,,2013-08-06 11:01:00,
2013-08-06 04:21:00,54.0,36.0,-100.00,East,89,1.0,2.0,51,-99.99,,,-99.99,,2013-08-06 11:21:00,
2013-08-06 04:43:00,54.0,34.0,-100.00,NNE,32,2.0,3.0,47,-99.99,,,-99.99,,2013-08-06 11:43:00,
2013-08-06 04:53:00,54.0,34.0,-100.00,NNE,32,2.0,3.0,47,-99.99,,,-99.99,,2013-08-06 11:53:00,
2013-08-06 05:01:00,54.0,33.0,-100.00,East,84,2.0,3.0,45,-99.99,,,-99.99,,2013-08-06 12:01:00,
2013-08-06 05:21:00,53.0,33.0,-100.00,NW,313,1.0,2.0,46,-99.99,,,-99.99,,2013-08-06 12:21:00,
2013-08-06 05:31:00,54.0,31.0,-100.00,NE,47,1.0,2.0,41,-99.99,,,-99.99,,2013-08-06 12:31:00,
2013-08-06 05:43:00,53.0,29.0,-100.00,NE,35,1.0,2.0,40,-99.99,,,-99.99,,2013-08-06 12:43:00,
2013-08-06 06:01:00,52.0,31.0,-100.00,NNE,13,1.0,2.0,45,-99.99,,,-99.99,,2013-08-06 13:01:00,
2013-08-06 06:11:00,52.0,31.0,-100.00,NNE,13,1.0,2.0,45,-99.99,,,-99.99,,2013-08-06 13:11:00,
2013-08-06 06:22:00,53.0,31.0,-100.00,NE,35,1.0,2.0,43,-99.99,,,-99.99,,2013-08-06 13:22:00,
2013-08-06 06:32:00,52.0,29.0,-100.00,North,3,1.0,1.0,41,-99.99,,,-99.99,,2013-08-06 13:32:00,
2013-08-06 06:42:00,53.0,28.0,-100.00,NNE,28,2.0,2.0,38,-99.99,,,-99.99,,2013-08-06 13:42:00,
2013-08-06 06:52:00,52.0,28.0,-100.00,NNE,22,1.0,2.0,40,-99.99,,,-99.99,,2013-08-06 13:52:00,
2013-08-06 07:01:00,53.0,26.0,-100.00,NNE,16,2.0,3.0,35,-99.99,,,-99.99,,2013-08-06 14:01:00,
2013-08-06 07:11:00,53.0,28.0,-100.00,NNE,27,1.0,4.0,38,-99.99,,,-99.99,,2013-08-06 14:11:00,
2013-08-06 07:21:00,53.0,27.0,-100.00,NNE,24,1.0,2.0,37,-99.99,,,-99.99,,2013-08-06 14:21:00,
2013-08-06 07:32:00,55.0,30.0,-100.00,NE,47,1.0,2.0,38,-99.99,,,-99.99,,2013-08-06 14:32:00,
2013-08-06 08:02:00,61.0,31.0,-100.00,ENE,71,1.0,1.0,32,-99.99,,,-99.99,,2013-08-06 15:02:00,
2013-08-06 08:22:00,64.0,29.0,-100.00,ESE,115,1.0,2.0,27,-99.99,,,-99.99,,2013-08-06 15:22:00,
2013-08-06 08:43:00,69.0,27.0,-100.00,SE,138,1.0,2.0,21,-99.99,,,-99.99,,2013-08-06 15:43:00,
2013-08-06 08:52:00,70.0,19.0,-100.00,South,183,1.0,2.0,14,-99.99,,,-99.99,,2013-08-06 15:52:00,
2013-08-06 09:11:00,72.0,20.0,-100.00,SSE,150,1.0,2.0,14,-99.99,,,-99.99,,2013-08-06 16:11:00,
2013-08-06 09:32:00,75.0,21.0,-100.00,South,169,3.0,5.0,13,-99.99,,,-99.99,,2013-08-06 16:32:00,
2013-08-06 09:52:00,80.0,19.0,-100.00,South,171,4.0,8.0,10,-99.99,,,-99.99,,2013-08-06 16:52:00,
2013-08-06 10:11:00,82.0,12.0,-100.00,WSW,254,6.0,13.0,7,-99.99,,,-99.99,,2013-08-06 17:11:00,
2013-08-06 10:21:00,84.0,13.0,-100.00,WNW,295,5.0,12.0,7,-99.99,,,-99.99,,2013-08-06 17:21:00,
2013-08-06 10:32:00,83.0,13.0,-100.00,NW,308,6.0,13.0,7,-99.99,,,-99.99,,2013-08-06 17:32:00,
2013-08-06 10:43:00,84.0,13.0,-100.00,WNW,295,8.0,14.0,7,-99.99,,,-99.99,,2013-08-06 17:43:00,
2013-08-06 10:52:00,84.0,13.0,-100.00,WNW,295,8.0,14.0,7,-99.99,,,-99.99,,2013-08-06 17:52:00,
2013-08-06 11:01:00,83.0,13.0,-100.00,West,263,10.0,18.0,7,-99.99,,,-99.99,,2013-08-06 18:01:00,
2013-08-06 11:11:00,83.0,13.0,-100.00,West,263,10.0,18.0,7,-99.99,,,-99.99,,2013-08-06 18:11:00,
2013-08-06 11:21:00,84.0,13.0,-100.00,WNW,290,6.0,15.0,7,-99.99,,,-99.99,,2013-08-06 18:21:00,
2013-08-06 11:32:00,84.0,13.0,-100.00,NNW,332,8.0,13.0,7,-99.99,,,-99.99,,2013-08-06 18:32:00,
2013-08-06 11:52:00,84.0,16.0,-100.00,WNW,282,8.0,13.0,8,-99.99,,,-99.99,,2013-08-06 18:52:00,
2013-08-06 12:01:00,84.0,16.0,-100.00,West,267,10.0,16.0,8,-99.99,,,-99.99,,2013-08-06 19:01:00,
2013-08-06 12:11:00,84.0,16.0,-100.00,WSW,258,10.0,18.0,8,-99.99,,,-99.99,,2013-08-06 19:11:00,
2013-08-06 12:32:00,85.0,17.0,-100.00,West,276,8.0,16.0,8,-99.99,,,-99.99,,2013-08-06 19:32:00,
2013-08-06 12:52:00,86.0,23.0,-100.00,WNW,288,8.0,13.0,10,-99.99,,,-99.99,,2013-08-06 19:52:00,
2013-08-06 13:01:00,86.0,23.0,-100.00,West,271,9.0,16.0,10,-99.99,,,-99.99,,2013-08-06 20:01:00,
2013-08-06 13:22:00,86.0,25.0,-100.00,West,275,10.0,16.0,11,-99.99,,,-99.99,,2013-08-06 20:22:00,
2013-08-06 13:32:00,86.0,25.0,-100.00,WNW,292,7.0,14.0,11,-99.99,,,-99.99,,2013-08-06 20:32:00,
2013-08-06 13:43:00,86.0,27.0,-100.00,West,270,8.0,15.0,12,-99.99,,,-99.99,,2013-08-06 20:43:00,
2013-08-06 13:52:00,86.0,27.0,-100.00,West,270,8.0,15.0,12,-99.99,,,-99.99,,2013-08-06 20:52:00,
2013-08-06 14:01:00,87.0,28.0,-100.00,WNW,300,8.0,16.0,12,-99.99,,,-99.99,,2013-08-06 21:01:00,
2013-08-06 14:11:00,87.0,28.0,-100.00,WNW,300,8.0,16.0,12,-99.99,,,-99.99,,2013-08-06 21:11:00,
2013-08-06 14:22:00,86.0,29.0,-100.00,West,264,8.0,16.0,13,-99.99,,,-99.99,,2013-08-06 21:22:00,
2013-08-06 14:32:00,87.0,28.0,-100.00,WNW,285,9.0,17.0,12,-99.99,,,-99.99,,2013-08-06 21:32:00,
2013-08-06 14:43:00,87.0,30.0,-100.00,West,280,9.0,15.0,13,-99.99,,,-99.99,,2013-08-06 21:43:00,
2013-08-06 14:52:00,87.0,30.0,-100.00,West,280,9.0,15.0,13,-99.99,,,-99.99,,2013-08-06 21:52:00,
2013-08-06 15:01:00,86.0,29.0,-100.00,West,279,8.0,17.0,13,-99.99,,,-99.99,,2013-08-06 22:01:00,
2013-08-06 15:11:00,87.0,30.0,-100.00,West,268,8.0,16.0,13,-99.99,,,-99.99,,2013-08-06 22:11:00,
2013-08-06 15:32:00,87.0,30.0,-100.00,NW,316,9.0,17.0,13,-99.99,,,-99.99,,2013-08-06 22:32:00,
2013-08-06 15:52:00,87.0,30.0,-100.00,West,272,8.0,16.0,13,-99.99,,,-99.99,,2013-08-06 22:52:00,
2013-08-06 16:01:00,87.0,32.0,-100.00,West,281,8.0,15.0,14,-99.99,,,-99.99,,2013-08-06 23:01:00,
2013-08-06 16:11:00,86.0,33.0,-100.00,WNW,295,8.0,13.0,15,-99.99,,,-99.99,,2013-08-06 23:11:00,
2013-08-06 16:32:00,86.0,38.0,-100.00,WNW,296,9.0,14.0,18,-99.99,,,-99.99,,2013-08-06 23:32:00,
2013-08-06 16:42:00,85.0,39.0,-100.00,WNW,283,8.0,13.0,20,-99.99,,,-99.99,,2013-08-06 23:42:00,
2013-08-06 16:52:00,85.0,39.0,-100.00,WNW,292,8.0,12.0,20,-99.99,,,-99.99,,2013-08-06 23:52:00,
2013-08-06 17:01:00,84.0,39.0,-100.00,WNW,297,8.0,14.0,20,-99.99,,,-99.99,,2013-08-07 00:01:00,
2013-08-06 17:11:00,84.0,40.0,-100.00,West,280,8.0,15.0,21,-99.99,,,-99.99,,2013-08-07 00:11:00,
2013-08-06 17:21:00,84.0,40.0,-100.00,NW,304,7.0,13.0,21,-99.99,,,-99.99,,2013-08-07 00:21:00,
2013-08-06 17:32:00,84.0,40.0,-100.00,NW,304,7.0,13.0,21,-99.99,,,-99.99,,2013-08-07 00:32:00,
2013-08-06 17:52:00,83.0,41.0,-100.00,WNW,286,8.0,14.0,23,-99.99,,,-99.99,,2013-08-07 00:52:00,
2013-08-06 18:01:00,83.0,41.0,-100.00,WNW,284,8.0,14.0,23,-99.99,,,-99.99,,2013-08-07 01:01:00,
2013-08-06 18:11:00,83.0,38.0,-100.00,West,281,8.0,12.0,20,-99.99,,,-99.99,,2013-08-07 01:11:00,
2013-08-06 18:21:00,83.0,39.0,-100.00,West,273,8.0,12.0,21,-99.99,,,-99.99,,2013-08-07 01:21:00,
2013-08-06 18:32:00,84.0,40.0,-100.00,WNW,292,5.0,8.0,21,-99.99,,,-99.99,,2013-08-07 01:32:00,
2013-08-06 18:43:00,82.0,42.0,-100.00,West,281,6.0,11.0,24,-99.99,,,-99.99,,2013-08-07 01:43:00,
2013-08-06 18:52:00,82.0,42.0,-100.00,West,281,6.0,11.0,24,-99.99,,,-99.99,,2013-08-07 01:52:00,
2013-08-06 19:02:00,82.0,42.0,-100.00,West,279,6.0,9.0,24,-99.99,,,-99.99,,2013-08-07 02:02:00,
2013-08-06 19:33:00,79.0,39.0,-100.00,NW,309,6.0,10.0,24,-99.99,,,-99.99,,2013-08-07 02:33:00,
2013-08-06 19:43:00,77.0,42.0,-100.00,NW,313,6.0,10.0,29,-99.99,,,-99.99,,2013-08-07 02:43:00,
2013-08-06 20:01:00,77.0,42.0,-100.00,NW,320,8.0,12.0,29,-99.99,,,-99.99,,2013-08-07 03:01:00,
2013-08-06 20:32:00,74.0,39.0,-100.00,NNW,335,2.0,6.0,28,-99.99,,,-99.99,,2013-08-07 03:32:00,
2013-08-06 20:43:00,73.0,41.0,-100.00,NW,313,4.0,10.0,31,-99.99,,,-99.99,,2013-08-07 03:43:00,
2013-08-06 20:52:00,73.0,41.0,-100.00,NW,313,4.0,10.0,31,-99.99,,,-99.99,,2013-08-07 03:52:00,
2013-08-06 21:11:00,72.0,41.0,-100.00,NNW,339,8.0,11.0,33,-99.99,,,-99.99,,2013-08-07 04:11:00,
2013-08-06 21:21:00,71.0,40.0,-100.00,NNW,344,8.0,10.0,33,-99.99,,,-99.99,,2013-08-07 04:21:00,
2013-08-06 21:33:00,70.0,35.0,-100.00,NNW,337,6.0,10.0,28,-99.99,,,-99.99,,2013-08-07 04:33:00,
2013-08-06 21:42:00,70.0,32.0,-100.00,NW,309,4.0,7.0,24,-99.99,,,-99.99,,2013-08-07 04:42:00,
2013-08-06 21:52:00,69.0,26.0,-100.00,NNW,341,8.0,11.0,20,-99.99,,,-99.99,,2013-08-07 04:52:00,
2013-08-06 22:02:00,69.0,26.0,-100.00,NW,319,5.0,10.0,20,-99.99,,,-99.99,,2013-08-07 05:02:00,
2013-08-06 22:11:00,69.0,26.0,-100.00,NW,319,5.0,10.0,20,-99.99,,,-99.99,,2013-08-07 05:11:00,